AirNav   Duncan Aviation - Near you to keep you flying
 
 1369 users online  

TE88 BB Airpark
Rosharon, Texas, USA

GOING TO ROSHARON?


FAA INFORMATION EFFECTIVE 09 SEPTEMBER 2021

Location

FAA Identifier: TE88
Lat/Long: 29-21-24.9900N 095-27-33.8500W
29-21.416500N 095-27.564167W
29.3569417,-95.4594028
(estimated)
Elevation: 50 ft. / 15 m (estimated)
Variation: 05E (1995)
From city: 1 mile N of ROSHARON, TX
Time zone: UTC -5 (UTC -6 during Standard Time)
Zip code: 77583

Airport Operations

Airport use: Private use. Permission required prior to landing
Activation date: 08/2000
Control tower: no
ARTCC: HOUSTON CENTER
FSS: MONTGOMERY COUNTY FLIGHT SERVICE STATION
Attendance: SR-SS
Wind indicator: yes
Segmented circle: no

Airport Communications

WX AWOS-3 at AXH (9 nm N): 123.625 (281-431-6572)
WX ASOS at LBX (15 nm S): 119.925 (979-849-3319)
WX ASOS at LVJ (15 nm NE): 118.525 (281-992-1853)
WX ASOS at SGR (19 nm NW): 118.125 (281-242-7605)
WX ASOS at HOU (20 nm NE): PHONE 713-847-1462

Nearby radio navigation aids

VOR radial/distance  VOR name  Freq  Var
VUHr274/31.4SCHOLES VOR/DME113.0006E
IAHr184/36.5HUMBLE VORTAC116.6005E
MHFr246/38.9TRINITY VOR/DME113.6007E

Airport Services

Fuel available: 100LL JET-A

Runway Information

Runway 13/31

Dimensions: 3400 x 100 ft. / 1036 x 30 m
Surface: turf
RUNWAY 13  RUNWAY 31
Traffic pattern: leftleft
Obstructions: 50 ft. wires, 200 ft. from runway50 ft. wires, 200 ft. from runway

Airport Ownership and Management from official FAA records

Ownership: Privately-owned
Owner: SME PROPERTIES, LLC
PO BOX 1121
ROSHARON, TX 77583
Phone 281-369-3337
Manager: STEVE BOYD
PO BOX 1121
ROSHARON, TX 77583
Phone 281-369-3337

Airport Operational Statistics

Aircraft based on the field: 9
Single engine airplanes: 3
Multi engine airplanes: 6
    
Aircraft operations: avg 86/week *
100% local general aviation
* for 12-month period ending 31 December 2019

Additional Remarks

SKYDIVING SCHOOL LCTD ON ARPT.
FOR CD CTC HOUSTON ARTCC AT 281-230-5622.
EXTENSIVE SKYDIVING OPS SR-SS DAILY LOCAL- 123.15 ATC- 134.45

Instrument Procedures

There are no published instrument procedures at TE88.

Some nearby airports with instrument procedures:

KAXH - Houston Southwest Airport (9 nm N)
KLBX - Texas Gulf Coast Regional Airport (15 nm S)
KLVJ - Pearland Regional Airport (15 nm NE)
KSGR - Sugar Land Regional Airport (19 nm NW)
KHOU - William P Hobby Airport (20 nm NE)
 
Loc | Ops | Rwys | IFR | FBO | Links
Com | Nav | Svcs | Stats | Notes
Area around TE88 (BB Airpark)
 
Road maps at: MapQuest Bing Google
 
Aerial photo
No photo
 
Sectional chart

 
Airport distance calculator
Flying to BB Airpark? Find the distance to fly.

From to TE88

Sunrise and sunset
Times for 23-Sep-2021
 Local
(UTC-5)
 Zulu
(UTC)
Morning civil twilight06:4811:48
Sunrise07:1212:12
Sunset19:1700:17
Evening civil twilight19:4000:40

Current date and time
Zulu (UTC)  23-Sep-2021 21:35:58
Local (UTC-5)  23-Sep-2021 16:35:58
 
METAR
KAXH 
9nm N 
232115Z AUTO 04003KT 10SM CLR 28/09 A3005 RMK AO2 T02760092
KLBX 
14nm S 
232053Z AUTO 09007KT 10SM CLR 27/12 A3004 RMK AO2 SLP173 T02720117 56020
KLVJ 
15nm NE 
232053Z AUTO 00000KT 10SM CLR 27/09 A3005 RMK AO2 SLP175 T02670089 56024
KSGR 
18nm NW 
232053Z 09005KT 10SM CLR 29/08 A3003 RMK AO2 SLP170 T02890083 56025
KHOU 
19nm NE 
232053Z 00000KT 10SM CLR 28/08 A3003 RMK AO2 SLP174 T02780083 56024
TAF
KLBX 
14nm S 
231733Z 2318/2418 09008KT P6SM SKC FM232300 VRB03KT P6SM SKC
KSGR 
18nm NW 
231733Z 2318/2418 10007KT P6SM SKC FM240100 VRB04KT P6SM SKC
KHOU 
19nm NE 
231733Z 2318/2418 06007KT P6SM SKC FM240000 VRB04KT P6SM SKC FM241500 10006KT P6SM FEW250
NOTAMs
Click for the latest NOTAMs
NOTAMs are issued by the DoD/FAA and will open in a separate window not controlled by AirNav.

 

 
 

Would you like to see your business listed on this page?

 If your business provides an interesting product or service to pilots, flight crews, aircraft, or users of the BB Airpark, you should consider listing it here.  To start the listing process, click on the button below
 
Add a business
 

Other Pages about BB Airpark

Update a link
 
Copyright © AirNav, LLC. All rights reserved. Privacy Policy  Contact